FW9002 Weather Reports


time (UTC)temp
C
wind
direction
speed
KPH
gust
KPH
rain 1hr
cm
rain 24hr
cm
rain mn
cm
humidity
%
barometer
mb
20260503190731 29 111 6.4 8.0 0.00 0.00 0.00 26 1011.7
20260503190228 29 157 3.2 3.2 0.00 0.00 0.00 27 1011.6
20260503185725 28 138 6.4 8.0 0.00 0.00 0.00 27 1011.6
20260503185220 28 138 3.2 4.8 0.00 0.00 0.00 27 1011.8
20260503184715 28 146 3.2 3.2 0.00 0.00 0.00 27 1012.0
20260503184212 28 113 6.4 8.0 0.00 0.00 0.00 28 1012.4
20260503183708 28 139 4.8 4.8 0.00 0.00 0.00 28 1012.2
20260503183206 28 176 3.2 3.2 0.00 0.00 0.00 28 1012.5
20260503182704 28 135 6.4 9.7 0.00 0.00 0.00 28 1012.5
20260503182202 27 110 4.8 4.8 0.00 0.00 0.00 28 1012.4
20260503181658 27 122 8.0 9.7 0.00 0.00 0.00 28 1012.7
20260503181155 28 129 8.0 9.7 0.00 0.00 0.00 28 1012.6
20260503180652 27 151 4.8 4.8 0.00 0.00 0.00 28 1012.7
20260503180150 27 151 9.7 11.3 0.00 0.00 0.00 28 1012.8
20260503175647 27 146 3.2 4.8 0.00 0.00 0.00 29 1013.0
20260503175144 27 90 6.4 9.7 0.00 0.00 0.00 29 1012.8
20260503174640 27 143 4.8 4.8 0.00 0.00 0.00 29 1013.0
20260503174137 27 201 3.2 4.8 0.00 0.00 0.00 29 1013.0
20260503173633 27 195 4.8 4.8 0.00 0.00 0.00 29 1013.1
20260503173130 27 161 3.2 3.2 0.00 0.00 0.00 28 1012.9
20260503172626 27 193 3.2 3.2 0.00 0.00 0.00 28 1013.2
20260503172124 27 118 4.8 4.8 0.00 0.00 0.00 29 1013.0
20260503171620 27 127 3.2 3.2 0.00 0.00 0.00 29 1013.3
20260503171117 27 177 4.8 4.8 0.00 0.00 0.00 29 1013.1
20260503170614 27 112 4.8 4.8 0.00 0.00 0.00 29 1013.1
20260503170111 27 113 6.4 8.0 0.00 0.00 0.00 29 1013.1
20260503151006 24 107 0.0 0.0 0.00 0.00 0.00 35 1013.3
20260503150503 24 134 1.6 1.6 0.00 0.00 0.00 35 1013.3
20260503131355 21 90 1.6 1.6 0.00 0.00 0.00 39 1012.6
20260503130853 21 76 1.6 1.6 0.00 0.00 0.00 39 1012.6
20260503130350 21 86 0.0 0.0 0.00 0.00 0.00 39 1012.4
20260503110744 23 135 6.4 8.0 0.00 0.00 0.00 34 1011.9
20260503110241 23 100 1.6 1.6 0.00 0.00 0.00 34 1012.0
20260503100207 23 127 1.6 3.2 0.00 0.00 0.00 33 1012.2
20260503090132 23 126 4.8 4.8 0.00 0.00 0.00 33 1012.2
20260503081602 23 93 3.2 4.8 0.00 0.00 0.00 32 1012.2
20260503081059 23 106 1.6 3.2 0.00 0.00 0.00 31 1012.2
20260503080555 24 131 1.6 1.6 0.00 0.00 0.00 31 1012.5
20260503072529 24 109 4.8 8.0 0.00 0.00 0.00 30 1012.7
20260503072026 25 107 1.6 1.6 0.00 0.00 0.00 30 1012.6
20260503071523 25 146 1.6 1.6 0.00 0.00 0.00 29 1012.7
20260503071020 25 116 8.0 12.9 0.00 0.00 0.00 29 1012.7
20260503070516 25 154 4.8 11.3 0.00 0.00 0.00 29 1013.0
20260503054940 25 86 3.2 3.2 0.00 0.00 0.00 28 1011.7
20260503054436 25 87 3.2 4.8 0.00 0.00 0.00 28 1011.7
20260503053934 25 90 1.6 1.6 0.00 0.00 0.00 28 1011.7
20260503053431 25 97 4.8 8.0 0.00 0.00 0.00 28 1011.8
20260503052927 26 86 6.4 9.7 0.00 0.00 0.00 28 1011.7
20260503052425 26 109 8.0 11.3 0.00 0.00 0.00 28 1011.8
20260503051921 26 104 8.0 9.7 0.00 0.00 0.00 28 1011.7
20260503051417 26 67 4.8 8.0 0.00 0.00 0.00 28 1011.8
20260503050915 26 54 4.8 9.7 0.00 0.00 0.00 27 1011.8
20260503050410 26 88 8.0 11.3 0.00 0.00 0.00 27 1011.8
20260503045908 26 70 3.2 3.2 0.00 0.00 0.00 27 1011.7
20260503045405 26 79 8.0 11.3 0.00 0.00 0.00 27 1011.6
20260503044902 26 84 11.3 14.5 0.00 0.00 0.00 27 1011.6
20260503044359 26 50 9.7 11.3 0.00 0.00 0.00 27 1011.9
20260503043856 26 57 4.8 8.0 0.00 0.00 0.00 26 1011.6
20260503043353 26 72 8.0 11.3 0.00 0.00 0.00 26 1011.6
20260503042849 26 61 8.0 12.9 0.00 0.00 0.00 26 1011.5
20260503042346 26 78 8.0 12.9 0.00 0.00 0.00 26 1011.3
20260503041842 26 87 8.0 11.3 0.00 0.00 0.00 26 1011.3
20260503041339 26 92 8.0 9.7 0.00 0.00 0.00 26 1010.9
20260503040837 26 67 9.7 11.3 0.00 0.00 0.00 25 1011.1
20260503040335 26 109 8.0 9.7 0.00 0.00 0.00 25 1010.9
20260503035831 26 46 6.4 9.7 0.00 0.00 0.00 25 1010.7
20260503035328 26 131 6.4 8.0 0.00 0.00 0.00 25 1010.6
20260503034826 26 28 8.0 9.7 0.00 0.00 0.00 25 1010.7
20260503034323 26 146 6.4 8.0 0.00 0.00 0.00 25 1010.6
20260503033820 26 53 8.0 9.7 0.00 0.00 0.00 25 1010.7
20260503033317 27 53 8.0 11.3 0.00 0.00 0.00 25 1010.6
20260503032815 27 43 4.8 4.8 0.00 0.00 0.00 24 1010.6
20260503032314 27 62 8.0 14.5 0.00 0.00 0.00 24 1010.7
20260503031811 27 80 3.2 3.2 0.00 0.00 0.00 24 1010.7
20260503031309 27 78 4.8 4.8 0.00 0.00 0.00 24 1010.7
20260503030805 27 54 3.2 3.2 0.00 0.00 0.00 24 1010.5
20260503030301 27 99 1.6 3.2 0.00 0.00 0.00 24 1010.5
20260503025758 27 55 6.4 8.0 0.00 0.00 0.00 24 1010.2
20260503025256 27 86 1.6 1.6 0.00 0.00 0.00 24 1010.4
20260503024752 27 91 0.0 1.6 0.00 0.00 0.00 23 1010.2
20260503024249 27 89 1.6 1.6 0.00 0.00 0.00 23 1010.3
20260503023746 27 57 1.6 3.2 0.00 0.00 0.00 23 1010.2
20260503023243 27 70 4.8 8.0 0.00 0.00 0.00 22 1010.1
20260503022739 28 91 4.8 4.8 0.00 0.00 0.00 22 1010.1
20260503022234 28 69 4.8 3.2 0.00 0.00 0.00 22 1010.3
20260503021731 28 136 6.4 9.7 0.00 0.00 0.00 22 1010.4
20260503021227 28 68 3.2 3.2 0.00 0.00 0.00 21 1010.0
20260503020725 28 80 1.6 1.6 0.00 0.00 0.00 21 1010.0
20260503020222 28 72 4.8 3.2 0.00 0.00 0.00 20 1010.1
20260503015719 28 113 1.6 4.8 0.00 0.00 0.00 20 1010.1
20260503015216 28 98 3.2 3.2 0.00 0.00 0.00 20 1010.2
20260503014711 29 78 1.6 1.6 0.00 0.00 0.00 20 1010.1
20260503014210 29 77 1.6 1.6 0.00 0.00 0.00 19 1010.1
20260503013706 29 94 1.6 1.6 0.00 0.00 0.00 19 1010.2
20260503013204 29 89 1.6 1.6 0.00 0.00 0.00 19 1010.2
20260503012701 29 131 0.0 1.6 0.00 0.00 0.00 19 1010.1
20260503012158 29 130 1.6 1.6 0.00 0.00 0.00 19 1010.2
20260503011654 30 138 1.6 1.6 0.00 0.00 0.00 19 1010.3
20260503011151 30 102 3.2 3.2 0.00 0.00 0.00 18 1010.3
20260503010647 30 116 4.8 4.8 0.00 0.00 0.00 18 1010.1
20260503010145 30 137 3.2 3.2 0.00 0.00 0.00 18 1010.2
20260503005642 30 82 0.0 0.0 0.00 0.00 0.00 18 1010.1
20260503005139 30 146 3.2 3.2 0.00 0.00 0.00 18 1010.1
20260503004635 30 124 4.8 4.8 0.00 0.00 0.00 18 1010.1
20260503004134 31 105 1.6 1.6 0.00 0.00 0.00 18 1010.0
20260503003631 31 86 1.6 1.6 0.00 0.00 0.00 18 1010.0
20260503003128 30 78 3.2 4.8 0.00 0.00 0.00 18 1010.0
20260503002625 30 128 3.2 3.2 0.00 0.00 0.00 18 1010.0
20260503002121 31 119 1.6 1.6 0.00 0.00 0.00 17 1010.0
20260503001617 31 103 3.2 3.2 0.00 0.00 0.00 17 1010.2
20260503001115 31 355 0.0 0.0 0.00 0.00 0.00 17 1010.0
20260503000612 31 192 3.2 3.2 0.00 0.00 0.00 17 1010.2
20260503000109 31 231 0.0 0.0 0.00 0.00 0.00 16 1010.1
20260502235606 31 200 4.8 4.8 0.00 0.00 0.00 16 1010.1
20260502235104 31 235 0.0 1.6 0.00 0.00 0.00 17 1010.2
20260502234559 31 223 4.8 4.8 0.00 0.00 0.00 16 1010.2
20260502234057 31 14 1.6 1.6 0.00 0.00 0.00 16 1010.1
20260502233557 32 96 3.2 3.2 0.00 0.00 0.00 15 1010.2
20260502233055 32 82 1.6 1.6 0.00 0.00 0.00 15 1010.3
20260502232551 32 86 1.6 1.6 0.00 0.00 0.00 15 1010.2
20260502232048 32 260 4.8 9.7 0.00 0.00 0.00 15 1010.3
20260502231545 31 324 1.6 1.6 0.00 0.00 0.00 16 1010.2
20260502231043 31 27 3.2 3.2 0.00 0.00 0.00 15 1010.4
20260502230541 32 52 1.6 1.6 0.00 0.00 0.00 14 1010.6
20260502230039 32 1 3.2 3.2 0.00 0.00 0.00 14 1010.4
20260502225534 31 170 0.0 0.0 0.00 0.00 0.00 14 1010.7
20260502225032 31 227 3.2 3.2 0.00 0.00 0.00 14 1010.9
20260502224528 32 138 8.0 11.3 0.00 0.00 0.00 15 1010.6
20260502224025 32 122 8.0 11.3 0.00 0.00 0.00 15 1010.6
20260502223523 32 207 1.6 1.6 0.00 0.00 0.00 15 1010.7
20260502223021 32 123 3.2 4.8 0.00 0.00 0.00 14 1010.5
20260502222518 33 289 3.2 3.2 0.00 0.00 0.00 14 1010.6
20260502222014 32 125 1.6 1.6 0.00 0.00 0.00 13 1010.7
20260502221510 32 70 1.6 3.2 0.00 0.00 0.00 13 1011.1
20260502221007 32 96 3.2 3.2 0.00 0.00 0.00 13 1010.9
20260502220502 32 127 4.8 4.8 0.00 0.00 0.00 14 1011.1
20260502215959 32 160 4.8 4.8 0.00 0.00 0.00 14 1011.1
20260502215457 32 88 6.4 9.7 0.00 0.00 0.00 14 1011.1
20260502214954 32 300 4.8 4.8 0.00 0.00 0.00 12 1011.5
20260502214451 32 300 4.8 4.8 0.00 0.00 0.00 12 1011.5
20260502213948 32 225 4.8 4.8 0.00 0.00 0.00 12 1011.7
20260502213444 31 113 1.6 1.6 0.00 0.00 0.00 13 1011.7
20260502212943 31 268 4.8 4.8 0.00 0.00 0.00 13 1011.7
20260502212441 31 220 8.0 11.3 0.00 0.00 0.00 12 1011.6
20260502211938 31 233 4.8 4.8 0.00 0.00 0.00 13 1011.5
20260502211434 31 248 3.2 4.8 0.00 0.00 0.00 13 1011.6
20260502210932 32 247 3.2 3.2 0.00 0.00 0.00 13 1011.9
20260502210428 32 3 3.2 3.2 0.00 0.00 0.00 14 1011.7
20260502205926 31 57 0.0 0.0 0.00 0.00 0.00 14 1011.9
20260502205421 31 353 0.0 0.0 0.00 0.00 0.00 15 1012.0
20260502204919 31 142 3.2 4.8 0.00 0.00 0.00 14 1012.0
20260502204416 31 70 1.6 1.6 0.00 0.00 0.00 17 1012.4
20260502203914 31 59 1.6 1.6 0.00 0.00 0.00 17 1012.2
20260502203411 31 359 3.2 3.2 0.00 0.00 0.00 16 1012.4
20260502202906 31 78 6.4 4.8 0.00 0.00 0.00 17 1012.4
20260502202404 31 126 1.6 1.6 0.00 0.00 0.00 17 1012.6
20260502201902 31 117 4.8 8.0 0.00 0.00 0.00 16 1012.6
20260502201357 31 239 9.7 14.5 0.00 0.00 0.00 14 1012.6
20260502200854 31 265 3.2 3.2 0.00 0.00 0.00 18 1012.7
20260502200350 30 285 3.2 4.8 0.00 0.00 0.00 18 1012.8
20260502195848 30 20 3.2 3.2 0.00 0.00 0.00 19 1012.8
20260502195344 30 110 4.8 4.8 0.00 0.00 0.00 18 1012.8
20260502194841 30 136 3.2 3.2 0.00 0.00 0.00 20 1012.8
20260502194338 30 92 3.2 4.8 0.00 0.00 0.00 19 1013.0
20260502193834 30 136 0.0 1.6 0.00 0.00 0.00 19 1013.0
20260502193331 29 82 3.2 3.2 0.00 0.00 0.00 22 1012.9
20260502192827 30 192 6.4 8.0 0.00 0.00 0.00 20 1012.8
20260502192324 30 278 4.8 4.8 0.00 0.00 0.00 20 1013.0
20260502191821 30 40 6.4 8.0 0.00 0.00 0.00 21 1012.9
20260502191319 30 91 1.6 1.6 0.00 0.00 0.00 21 1013.3